Williamtown, Australia

6:39 AM AEST on May 27, 2017 (GMT +1000)
Williamtown Military

Weather History for YWLM - December, 2012

Change the Weather History Date:

Tuesday, December 4, 2012

  Actual Average Record
Temperature  
Mean Temperature 74 °F -  
Max Temperature 83 °F - - ()
Min Temperature 64 °F - - ()
Cooling Degree Days 8    
Growing Degree Days 24 (Base 50)    
Moisture  
Dew Point 58 °F    
Average Humidity 66    
Maximum Humidity 100    
Minimum Humidity 13    
Precipitation  
Precipitation 0.00 in - - ()
Sea Level Pressure  
Sea Level Pressure 29.64 in    
Wind  
Wind Speed 9 mph ()    
Max Wind Speed 17 mph    
Max Gust Speed -    
Visibility 5.8 miles    
Events Fog    
T = Trace of Precipitation, MM = Missing Value Source: Averaged Metar Reports

Daily Weather History Graph

Daily Weather History Graph

Search for Another Location

Airport or City:

Trip Planner

Search our weather history database for the weather conditions in past years. The results will help you decide how hot, cold, wet, or windy it might be!

Date:

Astronomy

Dec. 04, 2012 Rise Set
Actual Time 5:37 AM AEDT 7:48 PM AEDT
Civil Twilight 5:09 AM AEDT 8:17 PM AEDT
Nautical Twilight 4:34 AM AEDT 8:51 PM AEDT
Astronomical Twilight 3:57 AM AEDT 9:28 PM AEDT
Moon 11:40 PM AEDT (12/4) 10:13 AM AEDT (12/4)
Length of Visible Light 15h 07m
Length of Day
14h 11m
Waning Gibbous, 75% of the Moon is Illuminated
Dec 4
Waning Gibbous
Dec 7
Last Quarter
Dec 13
New
Dec 20
First Quarter
Dec 28
Full

Hourly Weather History & Observations

Time (AEDT) Temp. Dew Point Humidity Pressure Visibility Wind Dir Wind Speed Gust Speed Precip Events Conditions
12:00 AM 67 °F 66 °F 96% 29.66 in - WSW 5.8 mph - -   Overcast
12:00 AM 68.0 °F 66.2 °F 94% 29.65 in 6.2 mi WSW 5.8 mph - N/A   Overcast
12:30 AM 68.0 °F 66.2 °F 94% 29.65 in 6.2 mi WSW 4.6 mph - N/A   Overcast
1:00 AM 68.0 °F 68.0 °F 100% 29.65 in 6.2 mi West 8.1 mph - N/A   Overcast
1:30 AM 68.0 °F 66.2 °F 94% 29.65 in 6.2 mi West 5.8 mph - N/A   Overcast
2:00 AM 69 °F 67 °F 90% 29.65 in - WSW 6.9 mph - -  
2:00 AM 68.0 °F 66.2 °F 94% 29.65 in 6.2 mi WSW 6.9 mph - N/A   Overcast
2:30 AM 68.0 °F 66.2 °F 94% 29.62 in 6.2 mi NW 6.9 mph - N/A   Mostly Cloudy
3:00 AM 67 °F 65 °F 92% 29.64 in - WNW 8.1 mph - -  
3:00 AM 66.2 °F 64.4 °F 94% 29.62 in 6.2 mi WNW 8.1 mph - N/A   Unknown
3:30 AM 66.2 °F 66.2 °F 100% 29.62 in 6.2 mi WNW 8.1 mph - N/A   Unknown
3:55 AM 66.2 °F 66.2 °F 100% 29.62 in 3.7 mi NW 9.2 mph - N/A   Unknown
4:00 AM 66.2 °F 64.4 °F 94% 29.62 in 3.7 mi NW 8.1 mph - N/A   Unknown
4:30 AM 66.2 °F 66.2 °F 100% 29.62 in 3.1 mi NW 8.1 mph - N/A   Unknown
5:00 AM 67 °F 66 °F 95% 29.62 in - NW 8.1 mph - -  
5:00 AM 66.2 °F 66.2 °F 100% 29.62 in 3.7 mi NW 8.1 mph - N/A   Scattered Clouds
5:13 AM 68.0 °F 66.2 °F 94% 29.62 in 4.3 mi NW 9.2 mph - N/A   Mostly Cloudy
5:19 AM 68.0 °F 66.2 °F 94% 29.62 in 5.0 mi NW 10.4 mph - N/A   Mostly Cloudy
5:30 AM 68.0 °F 66.2 °F 94% 29.62 in 5.6 mi NW 11.5 mph - N/A   Scattered Clouds
6:00 AM 66 °F 65 °F 95% 29.63 in 5 mi NW 10.4 mph - -   Mist
6:00 AM 66.2 °F 64.4 °F 94% 29.62 in 5.0 mi NW 10.4 mph - N/A   Partly Cloudy
6:30 AM 66.2 °F 66.2 °F 100% 29.62 in 6.2 mi WNW 10.4 mph - N/A Fog Partly Cloudy
7:00 AM 68.0 °F 66.2 °F 94% 29.62 in 1.9 mi WNW 11.5 mph - N/A   Partly Cloudy
7:30 AM 68.0 °F 68.0 °F 100% 29.65 in 3.7 mi West 11.5 mph - N/A   Scattered Clouds
8:00 AM 70 °F 65 °F 81% 29.65 in - West 13.8 mph - -  
8:00 AM 69.8 °F 66.2 °F 88% 29.65 in 6.2 mi West 13.8 mph - N/A   Partly Cloudy
8:30 AM 73.4 °F 60.8 °F 65% 29.65 in 6.2 mi West 15.0 mph - N/A   Partly Cloudy
9:00 AM 77 °F 54 °F 34% 29.65 in 19 mi West 17.3 mph - -   Haze
9:00 AM 77.0 °F 53.6 °F 44% 29.65 in - West 17.3 mph - N/A   Clear
9:30 AM 78.8 °F 48.2 °F 34% 29.65 in 6.2 mi West 17.3 mph - N/A   Partly Cloudy
10:00 AM 78.8 °F 42.8 °F 28% 29.65 in - West 15.0 mph - N/A   Clear
11:00 AM 81 °F 39 °F 13% 29.64 in - WNW 13.8 mph - -  
11:00 AM 80.6 °F 39.2 °F 23% 29.62 in - WNW 13.8 mph - N/A   Clear
11:30 AM 82.4 °F 41.0 °F 23% 29.62 in - WNW 13.8 mph - N/A   Clear
12:00 PM 83 °F 44 °F 16% 29.62 in 25 mi WNW 12.7 mph - -   Partly Cloudy
12:00 PM 82.4 °F 44.6 °F 26% 29.62 in - WNW 12.7 mph - N/A   Clear
12:30 PM 78.8 °F 55.4 °F 44% 29.62 in - SSE 12.7 mph - N/A   Clear
1:00 PM 77.0 °F 55.4 °F 47% 29.62 in - SSE 16.1 mph - N/A   Clear
1:30 PM 77.0 °F 55.4 °F 47% 29.62 in - SE 13.8 mph - N/A   Clear
2:00 PM 77 °F 52 °F 31% 29.62 in - SE 13.8 mph - -  
2:00 PM 77.0 °F 51.8 °F 41% 29.59 in - SE 13.8 mph - N/A   Clear
2:30 PM 77.0 °F 50.0 °F 39% 29.59 in - SE 15.0 mph - N/A   Clear
3:00 PM 77 °F 52 °F 31% 29.61 in - SE 13.8 mph - -  
3:00 PM 77.0 °F 51.8 °F 41% 29.59 in - SE 13.8 mph - N/A   Clear
3:30 PM 77.0 °F 51.8 °F 41% 29.59 in - ESE 15.0 mph - N/A   Clear
4:00 PM 77.0 °F 50.0 °F 39% 29.59 in - ESE 15.0 mph - N/A   Clear
4:30 PM 75.2 °F 48.2 °F 38% 29.59 in - ESE 13.8 mph - N/A   Clear
5:00 PM 76 °F 47 °F 26% 29.60 in - SE 15.0 mph - -  
5:00 PM 75.2 °F 48.2 °F 38% 29.59 in - SE 15.0 mph - N/A   Clear
5:30 PM 75.2 °F 48.2 °F 38% 29.59 in - SE 12.7 mph - N/A   Clear
6:00 PM 74 °F 49 °F 30% 29.62 in - East 11.5 mph - -  
6:00 PM 75.2 °F 50.0 °F 41% 29.59 in - East 11.5 mph - N/A   Clear
6:30 PM 73.4 °F 50.0 °F 44% 29.62 in - East 10.4 mph - N/A   Clear
7:00 PM 73.4 °F 53.6 °F 50% 29.65 in - ESE 10.4 mph - N/A   Clear
7:30 PM 71.6 °F 55.4 °F 57% 29.65 in - ESE 6.9 mph - N/A   Clear
8:00 PM 69 °F 56 °F 54% 29.69 in - ESE 5.8 mph - -  
8:00 PM 69.8 °F 55.4 °F 60% 29.68 in - ESE 5.8 mph - N/A   Clear
8:30 PM 66.2 °F 57.2 °F 73% 29.71 in - SSW 1.2 mph - N/A   Clear
9:00 PM 64 °F 58 °F 75% 29.73 in - South 3.5 mph - -  
9:00 PM 64.4 °F 57.2 °F 77% 29.71 in - South 3.5 mph - N/A   Clear
9:30 PM 64.4 °F 59.0 °F 83% 29.74 in - SSW 5.8 mph - N/A   Clear
10:00 PM 66.2 °F 59.0 °F 78% 29.77 in - SSE 9.2 mph - N/A   Clear
10:30 PM 66.2 °F 59.0 °F 78% 29.77 in 6.2 mi South 8.1 mph - N/A   Unknown
11:00 PM 65 °F 59 °F 75% 29.79 in - South 6.9 mph - -  
11:00 PM 64.4 °F 59.0 °F 83% 29.77 in 6.2 mi South 6.9 mph - N/A   Scattered Clouds
11:30 PM 64.4 °F 59.0 °F 83% 29.77 in 6.2 mi South 4.6 mph - N/A   Scattered Clouds